Regional Weather Roundup
Issued by NWS

Home | Current Version | Previous Version | Graphics & Text | Print | Product List | Glossary On
Versions: 1 2 3 4 5 6 7 8 9 10 11 12 13 14 15 16 17 18 19 20 21 22 23 24 25 26 27 28 29 30 31 32 33 34 35 36 37 38 39 40 41 42 43 44 45 46 47 48 49 50
000
ASUS43 KFSD 221402
RWRSD

WEATHER ROUNDUP FOR SOUTH DAKOTA
NATIONAL WEATHER SERVICE SIOUX FALLS SD
800 AM CST SAT NOV 22 2014

NOTE: "FAIR" INDICATES FEW OR NO CLOUDS BELOW 12,000 FEET WITH NO
SIGNIFICANT WEATHER AND/OR OBSTRUCTIONS TO VISIBILITY.


SDZ001>005-009-010-012>017-221500-
NORTHWEST AND NORTH CENTRAL SOUTH DAKOTA

CITY           SKY/WX    TMP DP  RH WIND       PRES   REMARKS
BUFFALO          N/A     30  23  75 SW3       29.41S
FAITH            N/A     27  22  81 S17       29.48F WCI  14
MOBRIDGE       CLEAR     29  25  85 SE10      29.53F WCI  20
$$

SDZ012>016-024>037-041>051-057-063-072>074-221500-
SOUTHWEST AND SOUTH CENTRAL SOUTH DAKOTA

CITY           SKY/WX    TMP DP  RH WIND       PRES   REMARKS
RAPID CTY ARPT MOCLDY    45  24  43 W12G21    29.51F
PIERRE         FOG       21  19  92 SE5       29.60F VSB 1/2 WCI  15
CUSTER         CLOUDY    36  20  52 W12G22    29.55F
ELLSWORTH AFB  MOCLDY    33  24  69 S10       29.50F WCI  24
PHILIP         PTCLDY    28  14  55 E3        29.56F
PINE RIDGE     MOCLDY    41  23  48 S14       29.60F
WINNER         FAIR      35  24  64 SW10      29.64F WCI  27
$$

SDZ004>011-016>023-039-040-221500-
NORTHEAST SOUTH DAKOTA

CITY           SKY/WX    TMP DP  RH WIND       PRES   REMARKS
ABERDEEN       CLEAR     20  17  88 S8        29.65F WCI  10
WATERTOWN      CLEAR     22  20  92 S9        29.68F FOG     WCI  12
SISSETON         N/A     35  26  69 SW13      29.63F WCI  26
$$

SDZ017-020-022-023-036>040-048>070-221500-
SOUTHEAST SOUTH DAKOTA

CITY           SKY/WX    TMP DP  RH WIND       PRES   REMARKS
SIOUX FALLS    FOG       28  28 100 S6        29.74F VSB 1/4 WCI  22
HURON          PTCLDY    21  20  96 SE5       29.67F FOG     WCI  15
CHAMBERLAIN    PTCLDY    23  21  91 SE3       29.66F
MITCHELL       CLEAR     25  23  92 S8        29.71F FOG     WCI  16
YANKTON        CLEAR     28  27  93 SE7       29.75F WCI  21
$$

ABBREVIATIONS USED IN REMARKS
   TC - TEMPERATURE IN CELSIUS
  WCI - WIND CHILL INDEX
   HX - HEAT INDEX
  VSB - VISIBILITY



USA.gov is the U.S. government's official web portal to all federal, state and local government web resources and services.